SITRO-AIS 11 (SHEFFER)

Last updated on Thu Nov 21 2024 00:03:40 GMT+0000 (Coordinated Universal Time)

1 57208U 23091AU 24325.59020218 .00017562 00000+0 89323-3 0 9998 2 57208 97.5919 18.5690 0009614 289.4616 70.5578 15.16865326 77222
UTC large
Height (km)
Speed (km/s)
/
Latitude / Longitude
Inclination (degrees)
Orbital Period (minutes)
Azimuth
Elevation
Range (km)
Doppler Factor

Next 0 passes for location: London (51.5072 / 0.1276)

Sorry there are no passes over London.